Regional Weather Roundup
Issued by NWS

Home | Current Version | Previous Version | Text Only | Print | Product List | Glossary Off
Versions: 1 2 3 4 5 6 7 8 9 10 11 12 13 14 15 16 17 18 19 20 21 22 23 24 25 26 27 28 29 30 31 32 33 34 35 36 37 38 39 40 41 42 43 44 45 46 47 48 49 50

000
ASUS43 KLOT 222012
RWRIL

ILLINOIS REGIONAL WEATHER ROUNDUP
NATIONAL WEATHER SERVICE CHICAGO/ROMEOVILLE IL
300 PM CDT FRI MAY 22 2015

NOTE: "FAIR" INDICATES FEW OR NO CLOUDS BELOW 12,000 FEET WITH NO
SIGNIFICANT WEATHER AND/OR OBSTRUCTIONS TO VISIBILITY.

* THESE STATIONS ARE NOT UNDER NWS QUALITY CONTROL. THEY ALSO MAY NOT
  REPORT WEATHER SUCH AS PRECIPITATION OR FOG.

ILZ001-002-007-009-015-016-024-222100-
NORTHWEST ILLINOIS

CITY           SKY/WX    TMP DP  RH WIND       PRES   REMARKS
MOLINE         PTSUNNY   76  36  23 VRB3      30.19S
STERLING*      SUNNY     75  41  29 CALM      30.20F
SAVANNA*       SUNNY     74  27  17 CALM      30.20F
$$

ILZ003-004-008-010-011-017-018-222100-
NORTH CENTRAL ILLINOIS

CITY           SKY/WX    TMP DP  RH WIND       PRES   REMARKS
ROCKFORD       MOSUNNY   74  39  28 CALM      30.24S
FREEPORT*      SUNNY     71  38  29 S3        30.23F
ROCHELLE*      SUNNY     73  36  26 CALM      30.22S
DE KALB*       SUNNY     70  37  29 CALM      30.23S
PERU*          MOSUNNY   76  37  24 CALM      30.21S
$$

ILZ005-006-012>014-019>023-222100-
NORTHEAST ILLINOIS

CITY           SKY/WX    TMP DP  RH WIND       PRES   REMARKS
CHICAGO-OHARE  MOSUNNY   66  29  24 E9        30.24S
CHICAGO-MIDWAY MOSUNNY   67  30  25 E12       30.25R
AURORA         SUNNY     74  34  23 MISG      30.22S
LANSING*       SUNNY     63  36  36 NE8       30.26R
JOLIET*        SUNNY     74  43  33 NE5       30.22S
WAUKEGAN       SUNNY     57  27  31 E9        30.27R
DUPAGE AIRPORT SUNNY     71  35  26 VRB6      30.23S
KANKAKEE*      SUNNY     73  45  36 N3        30.21F
WHEELING       SUNNY     60  26  27 NE10      30.27S
MORRIS*        SUNNY     74  36  25 E6        30.20F
ROMEOVILLE*    SUNNY     71  35  26 NE6       30.23S
NORTHERLY ISL    N/A     53  35  50 NE9         N/A
$$

LMZ740>746-222100-
SOUTHERN LAKE MICHIGAN

STATION/POSITION SKY/WX   TEMP    WIND        PRES    VSBY  WAVE
                          AIR SEA DIR/SP/G                  HT/PER
                          (F)     (DEG/KT/KT) (MB)    (MI)  (FT/S)
SOUTHERN BUOY              41 38  360/  8/  8 1026.1R
HARRISON CRIB              47      10/ 11/ 13   N/A
BURNHAM HARBOR             54     350/  7/ 12   N/A
CALUMET HARBOR             53     350/  8/ 11   N/A
BURNS HARBOR               52      50/ 10/ 10 1025.1R
MICHIGAN CITY              50      20/ 11/ 13   N/A
MICHIGAN CITY 6N           49 51   60/ 12/ 14   N/A           2/ 3
ST. JOSEPH                 52 53   50/ 12/ 14   N/A           2/ 3
$$

ILZ025>027-034>036-040-047-049-050-058-095>099-222100-
WEST-CENTRAL ILLINOIS

CITY           SKY/WX    TMP DP  RH WIND       PRES   REMARKS
QUINCY         CLOUDY    73  42  32 SW5       30.22F
GALESBURG*     CLOUDY    76  38  25 SW8       30.21F
MACOMB*        CLOUDY    76  36  23 SW9       30.23F
JACKSONVILLE*  CLOUDY    77  34  21 SW3       30.22S
PITTSFIELD*    CLOUDY    74  42  31 SW5       30.24F
$$

ILZ028>032-037-038-041>044-048-051>054-059>061-222100-
CENTRAL ILLINOIS

CITY           SKY/WX    TMP DP  RH WIND       PRES   REMARKS
PONTIAC        MOSUNNY   76  38  24 SW6       30.21R
BLOOMINGTON    PTSUNNY   76  41  28 W9        30.22S
DECATUR        PTSUNNY   77  41  27 W5        30.21F
PEORIA         CLOUDY    79  40  24 W5        30.21S
LACON*         PTSUNNY   76  41  28 E3        30.19F HAZE
LINCOLN*       PTSUNNY   79  39  23 NW5       30.19S
SPRINGFIELD    PTSUNNY   79  37  22 NW8       30.22S
TAYLORVILLE    CLOUDY    73  37  27 CALM      30.22F
$$

ILZ033-039-045-046-055>057-062-063-222100-
EAST-CENTRAL ILLINOIS

CITY           SKY/WX    TMP DP  RH WIND       PRES   REMARKS
CHAMPAIGN      PTSUNNY   77  39  25 NW10      30.21S
DANVILLE*      MOSUNNY   74  42  31 N9        30.18F
RANTOUL*       MOSUNNY   78  40  26 N6        30.20S
MATTOON        PTSUNNY   75  40  28 CALM      30.21S
PARIS*         PTSUNNY   76  40  27 CALM      30.21S
$$

ILZ079-100>102-222100-
SOUTHWEST ILLINOIS

CITY           SKY/WX    TMP DP  RH WIND       PRES   REMARKS
ALTON          CLOUDY    73  50  43 W6        30.24S
BELLEVILLE     CLOUDY    74  49  41 VRB5      30.22F
CAHOKIA*       CLOUDY    74  46  36 W6        30.23F
SPARTA*        PTSUNNY   73  51  45 SW3       30.26S
$$

ILZ064>066-069>071-074>076-080>082-084>086-088>090-092>094-222100-
SOUTH-CENTRAL ILLINOIS

CITY           SKY/WX    TMP DP  RH WIND       PRES   REMARKS
CARBONDALE     PTSUNNY   73  50  44 W9        30.26S
CAIRO*         MOSUNNY   71  48  45 SW3       30.27F
EFFINGHAM*     PTSUNNY   74  41  31 W7        30.25S
MARION         MOSUNNY   75  54  46 SW12      30.27S
MT. VERNON     PTSUNNY   75  48  38 W8        30.25S
CENTRALIA*     PTSUNNY   78  46  31 W7        30.24S
SALEM*         PTSUNNY   75  41  29 W5        30.25S
METROPOLIS*    MOSUNNY   73  48  41 SW3       30.27S
$$

ILZ067-068-072-073-078-083-087-091-222100-
SOUTHEAST ILLINOIS

CITY           SKY/WX    TMP DP  RH WIND       PRES   REMARKS
LAWRENCEVILLE  MOSUNNY   75  47  36 W9        30.24S
FLORA*         MOSUNNY   74  45  35 W7        30.25R
FAIRFIELD*     PTSUNNY   75  47  37 W5        30.23S
HARRISBURG*    MOSUNNY   74  49  41 W8        30.27S
ROBINSON*      MOSUNNY   75  46  35 W10       30.24S
CARMI*         MOSUNNY   76  42  29 SW10      30.24F
$$

ABBREVIATIONS USED IN REMARKS
   TC - TEMPERATURE IN CELSIUS
  WCI - WIND CHILL INDEX
   HX - HEAT INDEX
  VSB - VISIBILITY
$$




USA.gov is the U.S. government's official web portal to all federal, state and local government web resources and services.